This is the latest recevied weather packets stored in our database for station/object NQ9F. If no packets are shown the sender has not sent any weather packets the latest 1 day(s).
| Time | Temp. | Humidity | Pressure | Rain* | Wind** | Luminosity | Snow |
|---|---|---|---|---|---|---|---|
| 1777991159 | 22.22° C | 83% | 1003.9 hPa | 0 mm | 2.24 m/s, 206° | 276 W/m² | - |
| 1777990856 | 22.22° C | 83% | 1004.1 hPa | 0 mm | 8.49 m/s, 202° | 248 W/m² | - |
| 1777990553 | 22.22° C | 84% | 1004.1 hPa | 0 mm | 4.92 m/s, 190° | 256 W/m² | - |
| 1777990250 | 21.67° C | 84% | 1003.9 hPa | 0 mm | 5.81 m/s, 204° | 205 W/m² | - |
| 1777989947 | 21.67° C | 84% | 1003.9 hPa | 0 mm | 7.6 m/s, 195° | 219 W/m² | - |
| 1777989644 | 21.67° C | 84% | 1003.9 hPa | 0 mm | 4.02 m/s, 190° | 188 W/m² | - |
| 1777989340 | 21.67° C | 84% | 1004 hPa | 0 mm | 5.81 m/s, 192° | 214 W/m² | - |
| 1777989037 | 21.67° C | 85% | 1004.3 hPa | 0 mm | 5.36 m/s, 203° | 201 W/m² | - |
| 1777988732 | 21.67° C | 85% | 1004.2 hPa | 0 mm | 3.58 m/s, 180° | 170 W/m² | - |
| 1777988430 | 21.67° C | 85% | 1004.1 hPa | 0 mm | 7.15 m/s, 190° | 158 W/m² | - |
| 1777988127 | 21.67° C | 85% | 1004.1 hPa | 0 mm | 4.47 m/s, 204° | 157 W/m² | - |
| 1777987832 | 21.67° C | 85% | 1003.8 hPa | 0 mm | 3.58 m/s, 184° | 169 W/m² | - |
| 1777987520 | 21.11° C | 86% | 1003.7 hPa | 0 mm | 4.47 m/s, 187° | 131 W/m² | - |
| 1777987217 | 21.11° C | 86% | 1003.7 hPa | 0 mm | 2.24 m/s, 207° | 112 W/m² | - |
| 1777986914 | 21.11° C | 86% | 1003.8 hPa | 0 mm | 7.6 m/s, 185° | 95 W/m² | - |
| 1777986612 | 21.11° C | 86% | 1003.7 hPa | 0 mm | 4.47 m/s, 195° | 102 W/m² | - |
| 1777986309 | 21.11° C | 86% | 1003.7 hPa | 0 mm | 9.83 m/s, 186° | 112 W/m² | - |
| 1777986008 | 21.11° C | 86% | 1003.5 hPa | 0 mm | 2.24 m/s, 194° | 103 W/m² | - |
| 1777985704 | 21.11° C | 86% | 1003.5 hPa | 0 mm | 5.81 m/s, 196° | 97 W/m² | - |
| 1777985400 | 21.11° C | 86% | 1003.7 hPa | 0 mm | 8.94 m/s, 190° | 79 W/m² | - |
| 1777985097 | 21.11° C | 86% | 1003.5 hPa | 0 mm | 6.26 m/s, 205° | 80 W/m² | - |
| 1777984793 | 21.11° C | 86% | 1003.5 hPa | 0 mm | 3.13 m/s, 189° | 71 W/m² | - |
| 1777984490 | 20.56° C | 86% | 1003.5 hPa | 0 mm | 6.26 m/s, 203° | 66 W/m² | - |
| 1777984186 | 20.56° C | 87% | 1003.3 hPa | 0 mm | 8.94 m/s, 193° | 56 W/m² | - |
| 1777983883 | 20.56° C | 87% | 1003.3 hPa | 0 mm | 8.05 m/s, 204° | 47 W/m² | - |
* Rain latest hour (hover to see other rain measurements)
** Current wind speed in m/s (hover to see current wind gust speed)